QPF
0.01 0.01 0.02 0.02 0.02 0.02 0.02 0.01 0.02 0.02 0.03 0.04 0.04 0.03 0.01 0.01 0.01 0.01 0.02 0.04 0.06 0.07 0.07 0.07 0.05 0.04 0.04 0.03 0.03 0.02 0.02 0.02 0.02 0.03 0.03 0.04 0.04 0.05 0.05 0.05 0.09 0.13 0.10
0.01 0.00 0.01 0.01 0.01 0.01 0.01 0.02 0.02 0.03 0.03 0.04 0.04 0.03 0.02 0.02 0.02 0.02 0.02 0.02 0.04 0.04 0.05 0.06 0.06 0.05 0.04 0.03 0.04 0.05 0.04 0.02 0.02 0.03 0.02 0.02 0.03 0.05 0.06 0.08 0.09 0.09 0.08
0.01 0.01 0.00 0.01 0.01 0.02 0.05 0.06 0.04 0.04 0.04 0.04 0.04 0.04 0.03 0.03 0.03 0.02 0.02 0.02 0.03 0.03 0.03 0.04 0.05 0.06 0.06 0.05 0.05 0.07 0.07 0.04 0.03 0.04 0.05 0.04 0.03 0.05 0.06 0.06 0.06 0.05 0.04
0.02 0.02 0.01 0.01 0.01 0.01 0.06 0.13 0.09 0.06 0.05 0.04 0.04 0.04 0.03 0.03 0.03 0.03 0.02 0.02 0.02 0.02 0.02 0.02 0.02 0.04 0.05 0.07 0.09 0.10 0.11 0.09 0.07 0.07 0.07 0.06 0.06 0.05 0.06 0.07 0.06 0.06 0.05
0.01 0.01 0.01 0.01 0.01 0.01 0.04 0.13 0.13 0.09 0.08 0.05 0.03 0.03 0.04 0.03 0.03 0.03 0.03 0.02 0.02 0.01 0.01 0.01 0.01 0.02 0.03 0.07 0.11 0.12 0.15 0.15 0.11 0.12 0.11 0.09 0.08 0.06 0.06 0.06 0.05 0.05 0.03
0.00 0.00 0.01 0.02 0.02 0.02 0.04 0.11 0.15 0.13 0.11 0.07 0.05 0.04 0.05 0.04 0.03 0.03 0.03 0.03 0.02 0.01 0.01 0.01 0.01 0.02 0.02 0.04 0.09 0.14 0.18 0.16 0.13 0.13 0.12 0.09 0.07 0.06 0.06 0.05 0.05 0.05 0.03
0.01 0.01 0.00 0.02 0.03 0.04 0.04 0.07 0.12 0.15 0.15 0.10 0.06 0.06 0.06 0.05 0.03 0.02 0.02 0.02 0.02 0.02 0.02 0.01 0.01 0.02 0.03 0.03 0.05 0.09 0.16 0.17 0.12 0.10 0.10 0.11 0.09 0.06 0.05 0.04 0.04 0.05 0.06
0.01 0.01 0.01 0.02 0.04 0.05 0.04 0.05 0.08 0.10 0.11 0.09 0.07 0.06 0.07 0.07 0.05 0.03 0.02 0.02 0.03 0.03 0.02 0.02 0.02 0.02 0.03 0.04 0.04 0.06 0.09 0.11 0.11 0.09 0.07 0.09 0.09 0.07 0.05 0.07 0.09 0.06 0.11
0.01 0.01 0.01 0.02 0.02 0.04 0.06 0.05 0.05 0.06 0.07 0.06 0.06 0.05 0.05 0.05 0.05 0.04 0.03 0.03 0.03 0.02 0.02 0.03 0.03 0.03 0.03 0.04 0.04 0.04 0.04 0.07 0.09 0.08 0.07 0.08 0.08 0.07 0.07 0.12 0.23 0.16 0.18
0.02 0.02 0.01 0.01 0.01 0.03 0.06 0.06 0.05 0.05 0.06 0.04 0.04 0.04 0.04 0.03 0.02 0.03 0.03 0.04 0.03 0.03 0.02 0.02 0.02 0.02 0.02 0.03 0.04 0.04 0.04 0.04 0.05 0.04 0.04 0.05 0.05 0.06 0.07 0.10 0.22 0.27 0.22
0.02 0.02 0.01 0.01 0.01 0.01 0.02 0.03 0.03 0.03 0.04 0.03 0.03 0.03 0.03 0.04 0.03 0.02 0.03 0.03 0.03 0.03 0.03 0.02 0.02 0.02 0.03 0.04 0.06 0.05 0.05 0.04 0.02 0.02 0.02 0.03 0.04 0.05 0.09 0.12 0.14 0.16 0.16
0.03 0.02 0.02 0.01 0.01 0.01 0.01 0.01 0.01 0.02 0.01 0.01 0.01 0.02 0.03 0.03 0.03 0.02 0.02 0.02 0.02 0.03 0.03 0.03 0.03 0.03 0.06 0.06 0.05 0.05 0.04 0.03 0.02 0.02 0.02 0.03 0.04 0.05 0.07 0.12 0.13 0.10 0.10
0.03 0.03 0.03 0.02 0.01 0.01 0.01 0.01 0.01 0.01 0.01 0.01 0.00 0.01 0.02 0.02 0.02 0.02 0.02 0.02 0.02 0.02 0.02 0.02 0.02 0.03 0.04 0.07 0.05 0.06 0.06 0.04 0.02 0.01 0.01 0.02 0.03 0.08 0.12 0.10 0.09 0.09 0.07
0.02 0.02 0.02 0.03 0.02 0.01 0.01 0.00 0.00 0.00 0.00 0.00 0.00 0.01 0.01 0.01 0.01 0.01 0.02 0.02 0.01 0.01 0.02 0.02 0.01 0.01 0.02 0.06 0.05 0.05 0.07 0.05 0.03 0.02 0.01 0.01 0.02 0.05 0.11 0.12 0.08 0.06 0.04
0.01 0.01 0.01 0.03 0.03 0.02 0.01 0.00 0.00 0.00 0.01 0.01 0.01 0.01 0.01 0.01 0.01 0.01 0.01 0.01 0.02 0.01 0.01 0.01 0.01 0.01 0.01 0.03 0.05 0.05 0.06 0.05 0.04 0.03 0.03 0.02 0.03 0.04 0.06 0.08 0.05 0.03 0.01
0.01 0.01 0.01 0.03 0.05 0.03 0.02 0.01 0.00 0.00 0.01 0.01 0.01 0.00 0.01 0.00 0.00 0.00 0.00 0.01 0.01 0.01 0.02 0.02 0.02 0.01 0.01 0.01 0.03 0.05 0.05 0.05 0.03 0.03 0.02 0.03 0.03 0.03 0.02 0.03 0.02 0.02 0.02
0.01 0.01 0.01 0.02 0.03 0.04 0.03 0.02 0.01 0.01 0.01 0.01 0.01 0.00 0.00 0.01 0.01 0.01 0.00 0.00 0.00 0.01 0.01 0.02 0.02 0.02 0.01 0.01 0.01 0.03 0.04 0.04 0.02 0.02 0.03 0.03 0.03 0.04 0.03 0.02 0.02 0.01 0.02
0.02 0.02 0.02 0.02 0.03 0.03 0.03 0.03 0.02 0.02 0.03 0.03 0.03 0.03 0.03 0.02 0.01 0.01 0.01 0.01 0.01 0.01 0.01 0.01 0.02 0.02 0.01 0.01 0.01 0.01 0.03 0.04 0.02 0.02 0.02 0.03 0.04 0.04 0.03 0.02 0.02 0.02 0.02
0.02 0.03 0.03 0.03 0.03 0.03 0.03 0.03 0.03 0.03 0.03 0.03 0.03 0.02 0.02 0.02 0.01 0.01 0.01 0.01 0.01 0.00 0.00 0.01 0.01 0.01 0.01 0.02 0.02 0.02 0.03 0.04 0.03 0.02 0.02 0.03 0.03 0.03 0.02 0.02 0.02 0.02 0.01
0.01 0.01 0.01 0.01 0.01 0.02 0.02 0.02 0.02 0.01 0.01 0.01 0.01 0.01 0.01 0.01 0.00 0.00 0.01 0.01 0.01 0.00 0.00 0.00 0.01 0.02 0.01 0.01 0.01 0.02 0.03 0.04 0.03 0.03 0.02 0.01 0.01 0.02 0.02 0.01 0.01 0.01 0.01
0.01 0.01 0.01 0.00 0.01 0.01 0.02 0.02 0.01 0.01 0.01 0.01 0.01 0.01 0.01 0.01 0.01 0.00 0.01 0.02 0.01 0.01 0.01 0.00 0.01 0.01 0.01 0.01 0.01 0.02 0.04 0.04 0.04 0.02 0.02 0.01 0.01 0.01 0.01 0.02 0.01 0.01 0.01
0.00 0.01 0.00 0.00 0.01 0.01 0.01 0.01 0.01 0.02 0.01 0.01 0.01 0.01 0.01 0.01 0.01 0.01 0.00 0.01 0.00 0.00 0.01 0.01 0.01 0.01 0.01 0.00 0.01 0.02 0.05 0.03 0.03 0.02 0.01 0.01 0.01 0.01 0.01 0.01 0.02 0.01 0.01
0.00 0.00 0.00 0.00 0.01 0.01 0.01 0.01 0.01 0.02 0.02 0.02 0.02 0.02 0.01 0.01 0.01 0.01 0.00 0.00 0.00 0.00 0.00 0.00 0.01 0.01 0.01 0.01 0.01 0.03 0.04 0.02 0.02 0.02 0.01 0.01 0.01 0.00 0.01 0.01 0.02 0.02 0.02
0.01 0.00 0.00 0.00 0.01 0.01 0.01 0.01 0.01 0.02 0.01 0.02 0.02 0.02 0.02 0.01 0.01 0.01 0.01 0.01 0.00 0.00 0.00 0.01 0.01 0.00 0.00 0.01 0.02 0.03 0.04 0.02 0.01 0.01 0.02 0.01 0.01 0.01 0.01 0.01 0.01 0.01 0.01
0.01 0.01 0.01 0.01 0.01 0.01 0.01 0.01 0.01 0.01 0.02 0.02 0.02 0.02 0.02 0.01 0.01 0.01 0.01 0.00 0.00 0.00 0.01 0.01 0.01 0.00 0.00 0.00 0.01 0.02 0.03 0.02 0.01 0.01 0.00 0.01 0.01 0.01 0.01 0.01 0.01 0.01 0.01
0.01 0.01 0.01 0.01 0.02 0.01 0.01 0.01 0.01 0.01 0.02 0.02 0.02 0.01 0.01 0.01 0.01 0.01 0.01 0.00 0.00 0.01 0.02 0.01 0.00 0.00 0.00 0.00 0.00 0.01 0.02 0.02 0.02 0.01 0.00 0.00 0.00 0.01 0.02 0.01 0.01 0.01 0.01
MSLP
1019.03 1019.19 1019.32 1019.42 1019.50 1019.57 1019.62 1019.65 1019.67 1019.65 1019.61 1019.56 1019.50 1019.45 1019.43 1019.41 1019.38 1019.28 1019.05 1018.62 1017.94 1017.00 1015.81 1014.46 1013.03 1011.66 1010.47 1009.57 1009.02 1008.83 1008.96 1009.36 1009.92 1010.56 1011.20 1011.80 1012.33 1012.80 1013.23 1013.64 1014.07 1014.50 1014.94
1019.54 1019.68 1019.80 1019.90 1019.98 1020.06 1020.13 1020.18 1020.21 1020.21 1020.17 1020.12 1020.06 1020.01 1019.98 1019.97 1019.94 1019.85 1019.63 1019.22 1018.56 1017.63 1016.45 1015.08 1013.63 1012.21 1010.95 1009.95 1009.28 1008.96 1008.98 1009.27 1009.76 1010.36 1011.00 1011.62 1012.21 1012.76 1013.28 1013.78 1014.28 1014.78 1015.28
1020.02 1020.13 1020.23 1020.31 1020.40 1020.49 1020.58 1020.64 1020.68 1020.69 1020.66 1020.61 1020.55 1020.50 1020.47 1020.46 1020.45 1020.38 1020.19 1019.82 1019.21 1018.34 1017.23 1015.91 1014.49 1013.07 1011.78 1010.72 1009.95 1009.51 1009.39 1009.55 1009.93 1010.44 1011.03 1011.64 1012.26 1012.85 1013.44 1014.01 1014.58 1015.14 1015.69
1020.43 1020.50 1020.58 1020.65 1020.74 1020.83 1020.92 1021.00 1021.05 1021.07 1021.04 1020.99 1020.93 1020.87 1020.85 1020.85 1020.85 1020.82 1020.68 1020.38 1019.87 1019.11 1018.10 1016.90 1015.57 1014.21 1012.94 1011.85 1011.01 1010.46 1010.21 1010.22 1010.46 1010.86 1011.36 1011.93 1012.53 1013.14 1013.76 1014.38 1015.00 1015.60 1016.17
1020.75 1020.79 1020.84 1020.90 1020.98 1021.07 1021.17 1021.25 1021.30 1021.31 1021.28 1021.23 1021.16 1021.11 1021.09 1021.11 1021.14 1021.15 1021.08 1020.88 1020.48 1019.86 1019.01 1017.97 1016.78 1015.54 1014.34 1013.27 1012.41 1011.78 1011.41 1011.28 1011.38 1011.64 1012.03 1012.51 1013.06 1013.65 1014.27 1014.91 1015.55 1016.17 1016.75
1020.98 1020.99 1021.02 1021.07 1021.14 1021.23 1021.32 1021.40 1021.44 1021.44 1021.39 1021.33 1021.25 1021.20 1021.19 1021.23 1021.30 1021.36 1021.38 1021.28 1021.02 1020.57 1019.90 1019.05 1018.05 1016.97 1015.89 1014.90 1014.05 1013.38 1012.93 1012.68 1012.64 1012.76 1013.02 1013.39 1013.85 1014.38 1014.97 1015.59 1016.21 1016.83 1017.41
1021.12 1021.12 1021.13 1021.18 1021.24 1021.33 1021.41 1021.47 1021.49 1021.47 1021.40 1021.32 1021.24 1021.19 1021.18 1021.24 1021.35 1021.47 1021.57 1021.58 1021.46 1021.18 1020.71 1020.07 1019.27 1018.39 1017.48 1016.60 1015.82 1015.16 1014.66 1014.33 1014.16 1014.15 1014.27 1014.51 1014.86 1015.31 1015.82 1016.38 1016.98 1017.56 1018.12
1021.21 1021.19 1021.20 1021.24 1021.31 1021.39 1021.46 1021.50 1021.49 1021.44 1021.35 1021.25 1021.16 1021.10 1021.11 1021.18 1021.32 1021.50 1021.66 1021.78 1021.79 1021.67 1021.39 1020.96 1020.39 1019.72 1019.00 1018.27 1017.59 1016.99 1016.48 1016.10 1015.84 1015.71 1015.69 1015.80 1016.03 1016.35 1016.77 1017.26 1017.79 1018.33 1018.86
1021.25 1021.22 1021.24 1021.29 1021.36 1021.43 1021.49 1021.51 1021.48 1021.40 1021.29 1021.17 1021.06 1021.00 1021.01 1021.10 1021.26 1021.47 1021.69 1021.88 1022.01 1022.02 1021.91 1021.67 1021.31 1020.86 1020.33 1019.78 1019.24 1018.72 1018.25 1017.85 1017.53 1017.30 1017.17 1017.15 1017.24 1017.45 1017.75 1018.15 1018.61 1019.10 1019.59
1021.24 1021.22 1021.24 1021.30 1021.37 1021.45 1021.50 1021.50 1021.46 1021.36 1021.23 1021.09 1020.98 1020.91 1020.92 1021.01 1021.18 1021.41 1021.67 1021.91 1022.11 1022.23 1022.26 1022.19 1022.01 1021.75 1021.43 1021.05 1020.65 1020.24 1019.84 1019.45 1019.11 1018.82 1018.60 1018.47 1018.44 1018.53 1018.72 1019.02 1019.40 1019.83 1020.28
1021.20 1021.17 1021.20 1021.26 1021.34 1021.42 1021.47 1021.47 1021.41 1021.31 1021.17 1021.02 1020.90 1020.84 1020.85 1020.94 1021.10 1021.34 1021.60 1021.87 1022.12 1022.32 1022.45 1022.51 1022.49 1022.40 1022.25 1022.05 1021.79 1021.50 1021.18 1020.84 1020.49 1020.17 1019.89 1019.68 1019.56 1019.55 1019.65 1019.86 1020.16 1020.54 1020.95
1021.08 1021.05 1021.08 1021.15 1021.23 1021.31 1021.36 1021.37 1021.31 1021.21 1021.08 1020.94 1020.82 1020.76 1020.77 1020.85 1021.01 1021.24 1021.50 1021.78 1022.05 1022.29 1022.50 1022.66 1022.77 1022.82 1022.82 1022.77 1022.65 1022.48 1022.24 1021.97 1021.65 1021.33 1021.03 1020.77 1020.59 1020.51 1020.54 1020.68 1020.92 1021.25 1021.62
1020.88 1020.85 1020.87 1020.94 1021.03 1021.12 1021.17 1021.18 1021.14 1021.05 1020.93 1020.81 1020.71 1020.65 1020.66 1020.75 1020.90 1021.11 1021.36 1021.63 1021.91 1022.19 1022.45 1022.69 1022.89 1023.06 1023.19 1023.26 1023.27 1023.20 1023.07 1022.86 1022.60 1022.32 1022.02 1021.76 1021.56 1021.45 1021.43 1021.52 1021.72 1021.99 1022.32
1020.60 1020.56 1020.58 1020.65 1020.74 1020.83 1020.89 1020.91 1020.88 1020.81 1020.71 1020.61 1020.53 1020.49 1020.50 1020.59 1020.73 1020.93 1021.17 1021.45 1021.74 1022.04 1022.34 1022.64 1022.93 1023.19 1023.42 1023.60 1023.71 1023.75 1023.71 1023.58 1023.39 1023.16 1022.92 1022.68 1022.50 1022.38 1022.35 1022.42 1022.58 1022.81 1023.10
1020.27 1020.23 1020.25 1020.31 1020.39 1020.48 1020.55 1020.57 1020.56 1020.50 1020.42 1020.33 1020.27 1020.25 1020.27 1020.36 1020.50 1020.70 1020.95 1021.23 1021.54 1021.87 1022.22 1022.58 1022.93 1023.27 1023.59 1023.85 1024.05 1024.18 1024.22 1024.19 1024.08 1023.92 1023.74 1023.57 1023.43 1023.34 1023.33 1023.39 1023.52 1023.71 1023.95
1019.93 1019.90 1019.92 1019.98 1020.06 1020.15 1020.21 1020.23 1020.21 1020.16 1020.09 1020.01 1019.96 1019.94 1019.98 1020.07 1020.22 1020.43 1020.69 1020.99 1021.33 1021.70 1022.10 1022.51 1022.94 1023.35 1023.73 1024.07 1024.35 1024.55 1024.68 1024.72 1024.70 1024.63 1024.53 1024.43 1024.35 1024.32 1024.33 1024.40 1024.52 1024.67 1024.86
1019.66 1019.65 1019.68 1019.74 1019.82 1019.89 1019.94 1019.95 1019.92 1019.85 1019.77 1019.69 1019.64 1019.62 1019.65 1019.75 1019.91 1020.13 1020.41 1020.74 1021.12 1021.54 1022.00 1022.47 1022.95 1023.43 1023.88 1024.28 1024.62 1024.89 1025.08 1025.20 1025.25 1025.26 1025.25 1025.24 1025.23 1025.25 1025.31 1025.39 1025.50 1025.63 1025.77
1019.51 1019.53 1019.59 1019.66 1019.73 1019.79 1019.81 1019.79 1019.73 1019.64 1019.53 1019.43 1019.35 1019.32 1019.34 1019.44 1019.60 1019.84 1020.14 1020.51 1020.93 1021.40 1021.91 1022.44 1022.98 1023.51 1024.01 1024.46 1024.84 1025.16 1025.41 1025.59 1025.72 1025.81 1025.87 1025.94 1026.00 1026.08 1026.18 1026.29 1026.40 1026.51 1026.60
1019.52 1019.59 1019.67 1019.76 1019.83 1019.87 1019.86 1019.80 1019.69 1019.56 1019.41 1019.26 1019.15 1019.09 1019.10 1019.18 1019.34 1019.58 1019.90 1020.30 1020.76 1021.27 1021.82 1022.40 1022.98 1023.55 1024.08 1024.57 1024.99 1025.35 1025.64 1025.87 1026.05 1026.20 1026.34 1026.47 1026.60 1026.73 1026.87 1027.00 1027.12 1027.21 1027.29
1019.68 1019.80 1019.93 1020.03 1020.10 1020.11 1020.07 1019.97 1019.81 1019.62 1019.42 1019.23 1019.08 1018.98 1018.96 1019.02 1019.16 1019.40 1019.73 1020.14 1020.61 1021.15 1021.72 1022.32 1022.93 1023.52 1024.07 1024.58 1025.02 1025.40 1025.72 1025.99 1026.21 1026.41 1026.60 1026.78 1026.96 1027.14 1027.31 1027.47 1027.60 1027.70 1027.77
1019.97 1020.15 1020.30 1020.42 1020.49 1020.48 1020.41 1020.27 1020.07 1019.83 1019.57 1019.34 1019.14 1019.01 1018.95 1018.98 1019.11 1019.33 1019.64 1020.04 1020.51 1021.04 1021.62 1022.21 1022.82 1023.40 1023.95 1024.46 1024.91 1025.30 1025.64 1025.93 1026.18 1026.42 1026.64 1026.86 1027.08 1027.29 1027.49 1027.68 1027.83 1027.95 1028.04
1020.32 1020.54 1020.73 1020.86 1020.93 1020.91 1020.81 1020.64 1020.40 1020.12 1019.83 1019.56 1019.33 1019.17 1019.08 1019.09 1019.19 1019.38 1019.67 1020.04 1020.48 1020.97 1021.51 1022.08 1022.65 1023.21 1023.74 1024.23 1024.67 1025.06 1025.41 1025.71 1025.99 1026.25 1026.49 1026.74 1026.98 1027.22 1027.45 1027.65 1027.83 1027.99 1028.11
1020.65 1020.91 1021.13 1021.28 1021.35 1021.32 1021.21 1021.02 1020.76 1020.47 1020.16 1019.88 1019.63 1019.45 1019.35 1019.33 1019.40 1019.57 1019.81 1020.13 1020.51 1020.95 1021.43 1021.94 1022.45 1022.97 1023.46 1023.92 1024.34 1024.72 1025.07 1025.38 1025.67 1025.95 1026.22 1026.48 1026.73 1026.99 1027.23 1027.45 1027.66 1027.85 1028.01
1020.91 1021.20 1021.44 1021.60 1021.68 1021.66 1021.55 1021.36 1021.11 1020.82 1020.52 1020.25 1020.01 1019.83 1019.73 1019.70 1019.74 1019.87 1020.06 1020.32 1020.64 1021.00 1021.40 1021.83 1022.27 1022.72 1023.16 1023.59 1023.99 1024.36 1024.70 1025.02 1025.32 1025.61 1025.88 1026.15 1026.41 1026.67 1026.92 1027.15 1027.38 1027.59 1027.79
1021.06 1021.37 1021.62 1021.80 1021.89 1021.89 1021.80 1021.63 1021.40 1021.14 1020.88 1020.63 1020.42 1020.26 1020.17 1020.14 1020.17 1020.26 1020.40 1020.60 1020.84 1021.12 1021.43 1021.78 1022.14 1022.52 1022.91 1023.29 1023.67 1024.03 1024.37 1024.70 1025.00 1025.29 1025.57 1025.84 1026.09 1026.34 1026.58 1026.81 1027.04 1027.26 1027.48
1021.08 1021.42 1021.69 1021.88 1021.99 1022.01 1021.95 1021.82 1021.63 1021.42 1021.20 1021.00 1020.84 1020.71 1020.64 1020.61 1020.63 1020.69 1020.79 1020.93 1021.09 1021.29 1021.53 1021.79 1022.08 1022.40 1022.73 1023.08 1023.43 1023.78 1024.12 1024.45 1024.76 1025.05 1025.33 1025.58 1025.82 1026.04 1026.26 1026.47 1026.67 1026.89 1027.10
Thickness
5720 5720 5720 5719 5720 5719 5719 5719 5720 5720 5720 5720 5720 5721 5722 5721 5720 5720 5718 5716 5717 5717 5718 5719 5719 5719 5719 5719 5719 5718 5718 5717 5717 5716 5716 5716 5716 5716 5715 5715 5715 5716 5715
5717 5716 5717 5715 5716 5716 5716 5716 5717 5716 5716 5716 5716 5716 5716 5716 5716 5715 5714 5713 5712 5712 5713 5714 5714 5714 5715 5714 5714 5714 5713 5712 5712 5711 5711 5711 5710 5711 5710 5710 5710 5710 5710
5713 5714 5714 5713 5712 5712 5713 5713 5714 5713 5712 5712 5711 5711 5711 5711 5711 5711 5710 5710 5709 5708 5708 5708 5709 5710 5710 5710 5710 5709 5708 5707 5707 5706 5706 5705 5705 5705 5705 5705 5705 5705 5704
5710 5710 5709 5709 5709 5709 5709 5709 5710 5710 5709 5708 5707 5707 5707 5706 5706 5706 5706 5706 5705 5705 5704 5703 5704 5704 5705 5705 5705 5705 5704 5703 5702 5701 5701 5700 5700 5699 5699 5699 5699 5699 5699
5708 5707 5706 5706 5706 5706 5706 5706 5706 5706 5705 5703 5703 5702 5703 5702 5701 5702 5702 5702 5701 5701 5701 5700 5699 5699 5700 5700 5700 5700 5699 5699 5698 5697 5696 5695 5694 5694 5694 5694 5694 5694 5693
5704 5704 5703 5703 5702 5702 5701 5701 5700 5700 5700 5699 5699 5698 5698 5698 5698 5698 5698 5697 5697 5697 5697 5697 5697 5696 5695 5695 5695 5695 5695 5694 5693 5692 5691 5691 5690 5689 5689 5689 5689 5688 5688
5701 5700 5700 5699 5698 5698 5697 5698 5697 5696 5695 5696 5695 5694 5694 5695 5694 5693 5693 5694 5693 5692 5693 5692 5693 5692 5692 5690 5690 5690 5690 5689 5689 5688 5687 5686 5685 5685 5685 5684 5684 5683 5683
5698 5698 5697 5696 5695 5694 5694 5693 5692 5692 5691 5692 5692 5691 5690 5690 5688 5690 5689 5688 5689 5688 5688 5688 5688 5687 5687 5687 5685 5684 5684 5684 5684 5683 5683 5682 5681 5680 5680 5680 5679 5679 5680
5694 5694 5694 5693 5692 5692 5690 5689 5689 5688 5687 5688 5689 5689 5687 5685 5684 5685 5685 5685 5684 5683 5684 5683 5682 5682 5682 5682 5681 5679 5679 5679 5678 5678 5678 5677 5676 5676 5675 5675 5675 5675 5675
5691 5691 5690 5689 5689 5688 5687 5687 5687 5686 5684 5684 5685 5685 5686 5685 5682 5679 5680 5681 5680 5679 5679 5678 5677 5676 5676 5676 5674 5673 5673 5673 5673 5672 5672 5672 5671 5671 5670 5670 5670 5670 5670
5689 5688 5687 5687 5686 5685 5685 5684 5683 5682 5682 5681 5681 5681 5680 5679 5682 5680 5676 5675 5676 5676 5675 5674 5673 5672 5671 5670 5669 5668 5667 5667 5667 5667 5667 5666 5666 5666 5666 5665 5664 5664 5663
5687 5686 5685 5684 5683 5683 5682 5680 5679 5679 5679 5678 5678 5679 5677 5677 5676 5676 5674 5672 5671 5672 5671 5670 5669 5667 5666 5665 5663 5662 5661 5661 5661 5661 5661 5661 5661 5661 5660 5660 5660 5659 5658
5685 5684 5683 5682 5681 5680 5679 5677 5676 5676 5675 5674 5674 5675 5674 5674 5674 5673 5672 5670 5669 5669 5667 5667 5665 5663 5661 5660 5658 5656 5656 5656 5656 5655 5655 5655 5655 5655 5655 5655 5657 5656 5653
5685 5683 5682 5680 5679 5677 5676 5674 5673 5673 5673 5672 5671 5670 5670 5670 5670 5669 5668 5666 5665 5665 5665 5664 5662 5659 5657 5655 5654 5652 5652 5651 5650 5650 5650 5649 5649 5649 5649 5649 5651 5649 5648
5683 5681 5679 5678 5676 5674 5673 5672 5670 5670 5669 5669 5668 5667 5666 5666 5665 5665 5664 5663 5662 5661 5660 5660 5658 5655 5653 5651 5649 5649 5648 5646 5645 5644 5644 5644 5643 5643 5643 5642 5642 5642 5641
5680 5678 5677 5676 5674 5672 5670 5668 5667 5665 5665 5664 5662 5662 5661 5661 5660 5659 5659 5659 5659 5658 5657 5657 5654 5652 5648 5646 5644 5644 5643 5641 5640 5639 5638 5638 5638 5638 5637 5637 5636 5636 5635
5677 5675 5674 5673 5671 5670 5668 5665 5663 5662 5661 5660 5660 5658 5657 5656 5655 5654 5654 5653 5653 5653 5651 5651 5650 5648 5644 5642 5640 5639 5638 5638 5637 5635 5634 5633 5632 5632 5632 5631 5630 5630 5629
5674 5673 5671 5670 5668 5667 5665 5663 5660 5658 5657 5656 5656 5654 5653 5652 5650 5650 5649 5649 5648 5648 5647 5645 5644 5642 5640 5638 5637 5635 5634 5633 5633 5631 5629 5628 5627 5627 5626 5625 5625 5624 5623
5671 5670 5668 5666 5665 5664 5662 5661 5658 5657 5655 5653 5652 5651 5650 5649 5647 5646 5645 5644 5643 5643 5641 5641 5639 5637 5635 5633 5631 5630 5630 5628 5628 5627 5625 5623 5622 5622 5621 5620 5619 5618 5617
5668 5666 5665 5663 5662 5660 5659 5657 5655 5654 5652 5651 5649 5648 5647 5646 5644 5643 5641 5640 5639 5637 5636 5635 5633 5631 5629 5627 5626 5624 5624 5623 5622 5622 5620 5619 5618 5616 5615 5614 5614 5612 5611
5663 5663 5661 5660 5658 5656 5654 5652 5651 5650 5649 5647 5646 5645 5643 5640 5638 5637 5636 5635 5634 5632 5631 5629 5628 5626 5624 5622 5620 5619 5618 5618 5617 5616 5615 5614 5613 5612 5611 5609 5608 5607 5605
5660 5658 5657 5655 5653 5652 5648 5645 5645 5646 5645 5644 5642 5641 5639 5636 5633 5630 5629 5627 5626 5626 5625 5624 5623 5621 5621 5619 5616 5614 5612 5611 5611 5610 5608 5608 5607 5607 5606 5605 5603 5601 5599
5655 5654 5652 5651 5649 5647 5643 5640 5639 5640 5641 5640 5639 5637 5635 5633 5629 5628 5625 5621 5620 5618 5616 5618 5617 5617 5616 5615 5611 5608 5606 5605 5605 5605 5602 5603 5602 5601 5600 5599 5597 5595 5594
5651 5649 5648 5647 5644 5642 5638 5636 5634 5635 5636 5635 5634 5633 5631 5629 5626 5623 5623 5621 5619 5615 5612 5610 5610 5611 5610 5608 5606 5603 5601 5599 5598 5597 5594 5596 5597 5596 5595 5593 5591 5590 5588
5647 5646 5644 5643 5641 5638 5634 5632 5630 5632 5632 5631 5630 5628 5626 5625 5620 5617 5617 5616 5613 5610 5606 5603 5602 5601 5599 5598 5596 5595 5593 5591 5592 5591 5589 5589 5590 5590 5589 5588 5586 5584 5582
5642 5640 5638 5638 5636 5634 5630 5627 5625 5628 5628 5627 5625 5624 5619 5617 5614 5611 5611 5610 5607 5605 5602 5599 5596 5594 5593 5592 5589 5588 5588 5586 5586 5586 5585 5581 5583 5582 5582 5583 5581 5579 5577